Idaho Falls, ID

11:59 PM MDT on September 27, 2016 (GMT -0600)
Fanning

Weather History for KIDA - April, 2013

Change the Weather History Date:

Friday, April 5, 2013

  Actual Average Record
Temperature  
Mean Temperature 52 °F 42 °F  
Max Temperature 60 °F 54 °F 75 °F (1959)
Min Temperature 43 °F 30 °F 16 °F (1961)
Degree Days  
Heating Degree Days 13 23  
Month to date heating degree days 70 117  
Since 1 July heating degree days 6529 6821  
Cooling Degree Days 0 0  
Month to date cooling degree days 0 0  
Year to date cooling degree days 0 0  
Growing Degree Days 2 (Base 50)    
Moisture  
Dew Point 35 °F    
Average Humidity 55    
Maximum Humidity 80    
Minimum Humidity 30    
Precipitation  
Precipitation 0.04 in 0.03 in 0.56 in (2010)
Month to date precipitation 0.06 0.15  
Year to date precipitation 0.90 2.36  
Sea Level Pressure  
Sea Level Pressure 29.85 in    
Wind  
Wind Speed 18 mph (SSW)    
Max Wind Speed 37 mph    
Max Gust Speed 46 mph    
Visibility 10 miles    
Events Rain    
T = Trace of Precipitation, MM = Missing Value Source: NWS Daily Summary

Daily Weather History Graph

Daily Weather History Graph

Search for Another Location

Airport or City:

Trip Planner

Search our weather history database for the weather conditions in past years. The results will help you decide how hot, cold, wet, or windy it might be!

Date:

Astronomy

Apr. 05, 2013 Rise Set
Actual Time 7:02 AM MDT 8:00 PM MDT
Civil Twilight 6:33 AM MDT 8:29 PM MDT
Nautical Twilight 5:58 AM MDT 9:04 PM MDT
Astronomical Twilight 5:22 AM MDT 9:40 PM MDT
Moon 4:20 AM MDT (4/5) 3:20 PM MDT (4/5)
Length of Visible Light 13h 56m
Length of Day
12h 57m
Waning Crescent, 23% of the Moon is Illuminated
Apr 5
Waning Crescent
Apr 10
New
Apr 18
First Quarter
Apr 25
Full
May 2
Last Quarter

Hourly Weather History & Observations

Time (MDT) Temp. Windchill Dew Point Humidity Pressure Visibility Wind Dir Wind Speed Gust Speed Precip Events Conditions
12:53 AM 51.1 °F - 42.1 °F 71% 29.86 in 8.0 mi SW 8.1 mph - 0.01 in Rain Light Rain
1:53 AM 50.0 °F - 41.0 °F 71% 29.83 in 10.0 mi SW 9.2 mph - 0.02 in Rain Light Rain
2:53 AM 50.0 °F - 42.1 °F 74% 29.84 in 10.0 mi SSW 11.5 mph - 0.00 in Rain Light Rain
3:53 AM 48.0 °F - 43.0 °F 83% 29.82 in 10.0 mi South 13.8 mph - 0.03 in Rain Light Rain
4:53 AM 48.0 °F - 39.9 °F 74% 29.81 in 10.0 mi South 15.0 mph - 0.00 in   Overcast
5:53 AM 48.9 °F - 39.0 °F 69% 29.79 in 10.0 mi South 13.8 mph - N/A   Scattered Clouds
6:53 AM 48.0 °F - 39.0 °F 71% 29.81 in 10.0 mi SSW 12.7 mph - N/A   Clear
7:53 AM 48.0 °F - 39.0 °F 71% 29.82 in 10.0 mi SSW 15.0 mph 21.9 mph N/A   Overcast
8:53 AM 48.0 °F - 39.9 °F 74% 29.83 in 10.0 mi SSW 20.7 mph - N/A   Overcast
9:53 AM 48.0 °F - 37.9 °F 68% 29.83 in 10.0 mi SSW 20.7 mph 29.9 mph N/A   Mostly Cloudy
10:53 AM 51.1 °F - 39.9 °F 66% 29.84 in 10.0 mi SW 27.6 mph 39.1 mph N/A   Mostly Cloudy
11:53 AM 53.1 °F - 37.0 °F 55% 29.84 in 10.0 mi SW 32.2 mph 40.3 mph N/A   Mostly Cloudy
12:53 PM 51.1 °F - 33.1 °F 50% 29.87 in 10.0 mi SW 24.2 mph 38.0 mph N/A   Overcast
1:53 PM 51.1 °F - 36.0 °F 56% 29.86 in 10.0 mi SW 26.5 mph 36.8 mph 0.00 in Rain Light Rain
2:53 PM 57.9 °F - 33.1 °F 39% 29.83 in 10.0 mi SW 25.3 mph 35.7 mph 0.00 in   Overcast
3:37 PM 50.0 °F - 33.8 °F 54% 29.90 in 10.0 mi NNW 5.8 mph 19.6 mph N/A   Overcast
3:53 PM 52.0 °F - 32.0 °F 47% 29.85 in 10.0 mi NE 10.4 mph - N/A   Overcast
4:20 PM 60.8 °F - 30.2 °F 31% 29.88 in 10.0 mi WSW 23.0 mph 32.2 mph N/A   Overcast
4:53 PM 55.9 °F - 30.9 °F 39% 29.84 in 10.0 mi SW 18.4 mph 29.9 mph N/A   Mostly Cloudy
5:53 PM 57.0 °F - 26.1 °F 30% 29.84 in 10.0 mi SW 19.6 mph 27.6 mph N/A   Overcast
6:53 PM 55.9 °F - 26.1 °F 32% 29.85 in 10.0 mi SW 21.9 mph 28.8 mph N/A   Partly Cloudy
7:53 PM 52.0 °F - 26.1 °F 37% 29.88 in 10.0 mi SSW 12.7 mph 21.9 mph N/A   Clear
8:53 PM 50.0 °F - 26.1 °F 39% 29.90 in 10.0 mi SSW 16.1 mph 24.2 mph N/A   Clear
9:53 PM 48.0 °F - 28.0 °F 46% 29.92 in 10.0 mi SSW 21.9 mph 27.6 mph N/A   Partly Cloudy
10:53 PM 45.0 °F 37.4 °F 30.0 °F 56% 29.94 in 10.0 mi South 18.4 mph - N/A   Clear
11:53 PM 45.0 °F 38.5 °F 28.9 °F 53% 29.94 in 10.0 mi SSW 13.8 mph - N/A   Clear